Retour au catalogue

STARLINK-32739

ActifCommunicationsVLEO
NORAD 62498·PAYLOAD·🇺🇸 United States

Lancé Jan 6, 2025 depuis Cape Canaveral Space Force Station

Loading…

Prochains Passages (prochaines 24 heures)

TLE

FraisSource: CelesTrak SupGP

Époque: Sep 15, 2026, 02:33 UTC

1 62498C 25003M   26258.10673611  .00030651  00000+0  11101-2 0  2585
2 62498  43.0004 299.2244 0001453 267.0321 345.2173 15.27565398    15

Suivez STARLINK-32739 en temps réel avec AllMySat

Download on the App Store